Regional Weather Roundup
Issued by NWS Charleston, SC

Current Version | Previous Version | Graphics & Text | Print | Product List | Glossary On
Versions: 1 2 3 4 5 6 7 8 9 10 11 12 13 14 15 16 17 18 19 20 21 22 23 24 25 26 27 28 29 30 31 32 33 34 35 36 37 38 39 40 41 42 43 44 45 46 47 48 49 50
000
ASUS42 KCHS 091627
RWRCHS

REGIONAL WEATHER ROUNDUP
NATIONAL WEATHER SERVICE CHARLESTON SC
1100 AM EST FRI DEC 09 2016

NOTE: "FAIR" INDICATES FEW OR NO CLOUDS BELOW 12,000 FEET WITH NO
SIGNIFICANT WEATHER AND/OR OBSTRUCTIONS TO VISIBILITY.

NOT ALL STATIONS ARE QUALITY CONTROLLED. USE DATA WITH CAUTION...
ESPECIALLY DEWPOINT OBSERVATIONS.

SCZ027-030-031-034>040-042>050-091700-
...SOUTHEAST SOUTH CAROLINA...

CITY           SKY/WX    TMP DP  RH WIND       PRES   REMARKS
N CHARLESTON   MOSUNNY   47  19  33 N10       30.42F
WATERFRONT PRK   N/A     44  28  53 N10       30.42R
MOUNT PLEASANT FAIR      45  21  39 NW7       30.42F
JOHNS ISLAND   FAIR      46  19  34 N10G16    30.41F
PINOPOLIS        N/A     39  25  56 N8        30.37R WCI  34
MONCKS CORNER  FAIR      43  19  39 NE8       30.42F
SUMMERVILLE    FAIR      45  23  42 N8        30.43F
BEAUFORT MCAS  SUNNY     48  21  34 N9        30.42F
BEAUFORT ARPT  FAIR      46  27  46 N9        30.41F
HILTON HEAD IS SUNNY     50  23  34 N14       30.42
WALTERBORO     SUNNY     46  19  34 N7        30.42F
ALLENDALE      FAIR      45  19  36 VRB6      30.42F

...SOUTHERN MIDLANDS AND PEE DEE...

CITY           SKY/WX    TMP DP  RH WIND       PRES   REMARKS
GEORGETOWN     FAIR      43  21  42 N9        30.42
KINGSTREE      FAIR      41  18  38 N7        30.42F
ORANGEBURG     SUNNY     42  18  37 NE7       30.43F
BARNWELL       NOT AVBL
AIKEN          FAIR      39  16  38 N3        30.47S
MANNING        FAIR      41  19  42 NE6       30.44F
COLUMBIA       MOSUNNY   43  18  36 VRB6      30.45S
SUMTER         SUNNY     41  17  37 N9        30.42F
FLORENCE       SUNNY     41  19  41 N7        30.44S
MYRTLE BEACH   SUNNY     43  18  36 N16       30.44S
N MYRTLE BEACH SUNNY     42  20  41 N12       30.41S

$$

GAZ063-065-086>088-099>101-113>116-118-119-134>141-150-091700-
...SOUTHEAST GEORGIA...

CITY           SKY/WX    TMP DP  RH WIND       PRES   REMARKS
SAVANNAH ARPT  MOSUNNY   49  21  33 N7        30.43F
HUNTER AAF     SUNNY     49  28  44 N8        30.39F
FORT STEWART   SUNNY     48  21  35 CALM      30.40F
STATESBORO     SUNNY     47  23  38 N8        30.43F
SYLVANIA       SUNNY    N/A N/A N/A NE7       30.44F
CLAXTON        FAIR      47  23  39 N3        30.43F

...CSRA...CENTRAL AND FAR SOUTHEAST GEORGIA...

CITY           SKY/WX    TMP DP  RH WIND       PRES   REMARKS
THOMSON        SUNNY     42  23  47 CALM      30.51S
AUGUSTA-BUSH   SUNNY     46  17  31 NE9       30.46R
AUGUSTA-DANIEL SUNNY     43  15  32 N9        30.46R
SWAINSBORO     FAIR      45  21  39 CALM      30.45F
VIDALIA        SUNNY     46  28  49 N9        30.44S
EASTMAN        FAIR      45   1  16 N3        30.48F
HAZLEHURST     FAIR      46  22  39 CALM      30.43F
ALMA           SUNNY     46  22  38 N7        30.44S
WAYCROSS       SUNNY     50  27  40 CALM      30.43F
JESUP          FAIR      50  30  46 E7        30.43F
BAXLEY         FAIR      46  28  49 NE7       30.43F
BRUNSWICK      SUNNY     50  30  46 N7        30.42F
SAINT SIMONS   SUNNY     50  25  37 N13       30.41S

$$

SCZ027-028-034-036>038-045-046-048>050-GAZ119-141-091700-
...LAKE AND SUPPLEMENTAL COASTAL OBSERVATIONS...

STATION/POSITION TIME  TEMP    WIND        PRES    WAVE   SWELL
                       AIR SEA DIR/SP/G            HT/PER HT/PER/DIR
                 (UTC) (F)     (DEG/KT/KT) (MB)    (FT/S) (FT/S/D)
WINYAH BAY       1545   42      10/  6     1030.0S
LAKE MURRAY      1550   39      10/  3/  6 1030.8R
ACE BASIN NERRS  1545   46     360/  4     1030.0S
FORT PULASKI     1600   46 60   10/  8/ 12 1030.0
SAPELO ISLAND    1600   50      10/ 11     1030.0

$$

ANZ835-935-AMZ111-154-330-350-352-354-370-450-454-472-091700-
...C-MAN AND BUOY OBSERVATIONS...

STATION/POSITION TIME  TEMP    WIND        PRES    WAVE   SWELL
                       AIR SEA DIR/SP/G            HT/PER HT/PER/DIR
                 (UTC) (F)     (DEG/KT/KT) (MB)    (FT/S) (FT/S/D)
BUOY 41004       1550   49 73  360/ 17/ 23 1028.3R   6/ 6
BUOY 41008       1550   49 63   10/ 16/ 21 1029.3R   4/ 6   2/120/ 9
FOLLY BEACH CMAN 1600   45     340/  9/ 13 1030.3F
CAPERS NEARSHORE 1508   43 60   20/ 16/ 23 1029.7R
FRIPP NEARSHORE  1608   46 60   10/ 14/ 17 1029.6F


STATION/POSITION TIME  TEMP    WIND        PRES    WAVE   SWELL
                       AIR SEA DIR/SP/G            HT/PER HT/PER/DIR
                 (UTC) (F)     (DEG/KT/KT) (MB)    (FT/S) (FT/S/D)
5E ST. MARYS GA  1600      64                N/A     4/ 5
FRYING PAN BUOY  1610   44 73  350/ 16/ 23 1028.3
BUOY 41025       1550   42 75  350/ 17/ 25 1026.4R   5/ 8   3/ 50/ 8
CAPE LOOKOUT NC  1600   40     340/ 12/ 15 1027.4F
BUOY 41002       1550   62 73  340/ 17/ 23 1023.3R   7/ 7   3/ 80/12
BUOY 41010       NOT AVBL
ST AUGUSTINE FL  1600   52 65  340/ 19/ 21 1029.5F


$$




USA.gov is the U.S. government's official web portal to all federal, state and local government web resources and services.